Location: Newark
(36.0797°N, 3.9744°E)
Time: 19:08:07
(UTC+00:00)

Vanguard 2 - Pass Details

Date: 12 December 2019
Orbit: 553 x 2938 km, 32.9° (Epoch: 28 January)

Event Time Altitude Azimuth Distance (km) Brightness Sun altitude
Exits shadow 02:25:25 71° 121° (ESE) 3,046 10.3 -51.6°
Drops below altitude 10° 02:40:35 10° 90° (E) 5,454 12.3 -48.5°
Sets 02:44:25 0° 90° (E) 6,273 12.9 -47.8°
